Location: ??????
(30.0081°N, 31.2109°E)
Time: 07:56:32
(UTC+00:00)

Cosmos 2263 Rocket - Pass Details

Date: 03 March 2021
Orbit: 825 x 847 km, 71.0° (Epoch: 15 April)

Event Time Altitude Azimuth Distance (km) Brightness Sun altitude
Rises 16:10:01 0° 344° (NNW) 3,363 5.5 -3.9°
Reaches altitude 10° 16:12:29 10° 348° (NNW) 2,427 4.7 -4.5°
Maximum altitude 16:17:59 63° 69° (ENE) 918 2.2 -5.6°
Drops below altitude 10° 16:23:29 10° 150° (SSE) 2,423 4.3 -6.8°
Sets 16:25:56 0° 154° (SSE) 3,356 5.1 -7.4°
